Athens, OH

6:29 AM EDT on June 25, 2017 (GMT -0400)
Ohio University

Weather History for KUNI - November, 2013

Change the Weather History Date:

Tuesday, November 12, 2013

  Actual Average (KPKB) Record (KPKB)
Temperature  
Mean Temperature 33 °F -  
Max Temperature 41 °F 52 °F 77 °F (1949)
Min Temperature 25 °F 35 °F 16 °F (1913)
Degree Days  
Heating Degree Days 32    
Moisture  
Dew Point 25 °F    
Average Humidity 78    
Maximum Humidity 96    
Minimum Humidity 65    
Precipitation  
Precipitation 0.00 in - - ()
Sea Level Pressure  
Sea Level Pressure 30.42 in    
Wind  
Wind Speed 9 mph (NNW)    
Max Wind Speed 16 mph    
Max Gust Speed 21 mph    
Visibility 9 miles    
Events Rain , Snow    
Averages and records for this station are not official NWS values.
T = Trace of Precipitation, MM = Missing Value Source: NWS Daily Summary

Daily Weather History Graph

Daily Weather History Graph

Search for Another Location

Airport or City:

Trip Planner

Search our weather history database for the weather conditions in past years. The results will help you decide how hot, cold, wet, or windy it might be!

Date:

Astronomy

Nov. 12, 2013 Rise Set
Actual Time 7:09 AM EST 5:16 PM EST
Civil Twilight 6:40 AM EST 5:45 PM EST
Nautical Twilight 6:08 AM EST 6:17 PM EST
Astronomical Twilight 5:36 AM EST 6:48 PM EST
Moon 2:28 PM EST (11/12) 1:59 AM EST (11/12)
Length of Visible Light 11h 04m
Length of Day
10h 07m
Waxing Gibbous, 76% of the Moon is Illuminated
Nov 12
Waxing Gibbous
Nov 17
Full
Nov 25
Last Quarter
Dec 2
New
Dec 9
First Quarter

Hourly Weather History & Observations

Time (EST) Temp. Windchill Dew Point Humidity Pressure Visibility Wind Dir Wind Speed Gust Speed Precip Events Conditions
12:15 AM 41.0 °F 34.7 °F 37.9 °F 89% 30.15 in 7.0 mi NW 10.4 mph - N/A   Light Drizzle
12:35 AM 40.3 °F 33.9 °F 37.4 °F 89% 30.16 in 7.0 mi NNW 10.4 mph 18.4 mph N/A Rain Light Rain
12:55 AM 39.6 °F 32.1 °F 36.9 °F 90% 30.17 in 7.0 mi North 12.7 mph 18.4 mph N/A Rain Light Rain
1:15 AM 37.9 °F 28.9 °F 35.2 °F 90% 30.18 in 10.0 mi North 16.1 mph 20.7 mph N/A Rain Light Rain
1:35 AM 36.1 °F 28.2 °F 33.4 °F 90% 30.19 in 10.0 mi North 11.5 mph 19.6 mph N/A Rain Light Rain
1:55 AM 34.3 °F 26.5 °F 32.2 °F 92% 30.21 in 10.0 mi North 10.4 mph 18.4 mph N/A Rain Light Rain
2:15 AM 33.3 °F 25.1 °F 31.8 °F 94% 30.22 in 7.0 mi North 10.4 mph 16.1 mph N/A Snow Light Snow
2:35 AM 32.5 °F 23.7 °F 31.1 °F 94% 30.23 in 4.0 mi North 11.5 mph 18.4 mph N/A Snow Light Snow
2:55 AM 32.2 °F 22.7 °F 31.1 °F 96% 30.24 in 2.0 mi North 12.7 mph - N/A Snow Light Snow
3:15 AM 32.0 °F 22.5 °F 30.7 °F 95% 30.25 in 2.5 mi North 12.7 mph 19.6 mph N/A Snow Light Snow
3:35 AM 32.0 °F 23.6 °F 30.6 °F 94% 30.25 in 1.8 mi North 10.4 mph - N/A Snow Light Snow
3:55 AM 32.0 °F 23.0 °F 30.4 °F 94% 30.26 in 2.5 mi NNW 11.5 mph - N/A Snow Light Snow
4:15 AM 31.6 °F 26.0 °F 29.8 °F 93% 30.27 in 3.0 mi NNW 5.8 mph - N/A Snow Light Snow
4:35 AM 31.1 °F 23.1 °F 29.1 °F 92% 30.29 in 2.5 mi NNW 9.2 mph - N/A Snow Light Snow
4:55 AM 30.7 °F 20.9 °F 28.4 °F 91% 30.31 in 4.0 mi North 12.7 mph - N/A Snow Light Snow
5:15 AM 30.2 °F 21.3 °F 28.0 °F 92% 30.31 in 3.0 mi NNW 10.4 mph 16.1 mph N/A Snow Light Snow
5:35 AM 30.0 °F 20.5 °F 27.5 °F 90% 30.33 in 7.0 mi North 11.5 mph 17.3 mph N/A Snow Light Snow
5:55 AM 30.0 °F 22.4 °F 26.2 °F 86% 30.34 in 10.0 mi North 8.1 mph - N/A   Overcast
6:15 AM 29.8 °F 22.2 °F 26.1 °F 86% 30.35 in 10.0 mi North 8.1 mph - N/A   Overcast
6:35 AM 29.7 °F 23.7 °F 25.7 °F 85% 30.36 in 10.0 mi NNW 5.8 mph - N/A   Overcast
6:55 AM 29.3 °F 21.5 °F 25.5 °F 86% 30.37 in 10.0 mi NNW 8.1 mph - N/A   Scattered Clouds
7:15 AM 29.1 °F 22.1 °F 25.3 °F 86% 30.38 in 10.0 mi NNW 6.9 mph - N/A   Scattered Clouds
7:35 AM 28.9 °F 22.8 °F 24.8 °F 84% 30.39 in 10.0 mi NNW 5.8 mph - N/A   Scattered Clouds
7:55 AM 28.4 °F 21.2 °F 24.3 °F 84% 30.41 in 10.0 mi NNW 6.9 mph - N/A   Clear
8:15 AM 28.0 °F 20.8 °F 23.7 °F 84% 30.41 in 10.0 mi NNW 6.9 mph - N/A   Clear
8:35 AM 28.4 °F 21.2 °F 23.5 °F 82% 30.43 in 10.0 mi North 6.9 mph - N/A   Clear
8:55 AM 28.0 °F 19.3 °F 22.6 °F 80% 30.43 in 10.0 mi NNW 9.2 mph - N/A   Clear
9:15 AM 28.9 °F 19.2 °F 22.6 °F 77% 30.44 in 10.0 mi NNW 11.5 mph - N/A   Clear
9:35 AM 29.8 °F 20.9 °F 22.8 °F 75% 30.44 in 10.0 mi NNW 10.4 mph - N/A   Clear
9:55 AM 30.0 °F 23.2 °F 23.0 °F 75% 30.44 in 10.0 mi NNW 6.9 mph - N/A   Clear
10:15 AM 30.6 °F 21.8 °F 22.8 °F 73% 30.45 in 10.0 mi North 10.4 mph - N/A   Clear
10:35 AM 31.3 °F 23.9 °F 23.0 °F 71% 30.45 in 10.0 mi NNW 8.1 mph 16.1 mph N/A   Scattered Clouds
10:55 AM 31.5 °F 21.8 °F 23.4 °F 72% 30.45 in 10.0 mi North 12.7 mph - N/A   Scattered Clouds
11:15 AM 32.0 °F 25.6 °F 23.2 °F 70% 30.45 in 10.0 mi NNW 6.9 mph - N/A   Scattered Clouds
11:35 AM 31.8 °F 22.3 °F 23.2 °F 70% 30.46 in 10.0 mi North 12.7 mph 18.4 mph N/A   Scattered Clouds
11:55 AM 32.2 °F 22.7 °F 22.8 °F 68% 30.45 in 10.0 mi North 12.7 mph 17.3 mph N/A   Scattered Clouds
12:15 PM 32.7 °F 26.4 °F 23.4 °F 68% 30.44 in 10.0 mi North 6.9 mph - N/A   Scattered Clouds
12:35 PM 33.6 °F 25.0 °F 23.9 °F 68% 30.44 in 10.0 mi North 11.5 mph 16.1 mph N/A   Mostly Cloudy
12:55 PM 32.7 °F 23.4 °F 22.3 °F 65% 30.44 in 10.0 mi NNW 12.7 mph - N/A   Mostly Cloudy
1:15 PM 32.0 °F 23.6 °F 23.4 °F 70% 30.45 in 10.0 mi North 10.4 mph 20.7 mph N/A   Overcast
1:35 PM 32.4 °F 23.5 °F 23.0 °F 68% 30.45 in 10.0 mi NW 11.5 mph 17.3 mph N/A   Overcast
1:55 PM 32.4 °F 24.6 °F 23.2 °F 69% 30.46 in 10.0 mi NW 9.2 mph - N/A   Overcast
2:15 PM 32.7 °F 25.7 °F 23.5 °F 69% 30.47 in 10.0 mi NNW 8.1 mph - N/A   Overcast
2:35 PM 32.2 °F 23.8 °F 22.1 °F 66% 30.47 in 10.0 mi NW 10.4 mph - N/A   Overcast
2:55 PM 32.0 °F 22.5 °F 23.2 °F 70% 30.48 in 10.0 mi NNW 12.7 mph 17.3 mph N/A   Overcast
3:15 PM 32.5 °F 25.5 °F 23.5 °F 69% 30.48 in 10.0 mi NW 8.1 mph - N/A   Scattered Clouds
3:35 PM 32.9 °F 27.5 °F 22.6 °F 66% 30.48 in 10.0 mi NNW 5.8 mph - N/A   Scattered Clouds
3:55 PM 32.0 °F 24.8 °F 22.6 °F 68% 30.49 in 10.0 mi NW 8.1 mph - N/A   Scattered Clouds
4:15 PM 32.2 °F 25.8 °F 22.8 °F 68% 30.49 in 10.0 mi NNW 6.9 mph - N/A   Mostly Cloudy
4:35 PM 32.2 °F 27.7 °F 22.5 °F 67% 30.50 in 10.0 mi NNW 4.6 mph - N/A   Overcast
4:55 PM 32.0 °F 23.6 °F 22.5 °F 68% 30.50 in 10.0 mi NW 10.4 mph - N/A   Mostly Cloudy
5:15 PM 32.0 °F 24.8 °F 22.3 °F 67% 30.51 in 10.0 mi NW 8.1 mph - N/A   Mostly Cloudy
5:35 PM 31.1 °F 26.4 °F 21.9 °F 69% 30.50 in 10.0 mi NW 4.6 mph - N/A   Scattered Clouds
5:55 PM 30.9 °F 22.8 °F 21.0 °F 67% 30.51 in 10.0 mi WNW 9.2 mph - N/A   Scattered Clouds
6:15 PM 30.6 °F 23.8 °F 20.7 °F 67% 30.52 in 10.0 mi NW 6.9 mph - N/A   Clear
6:35 PM 30.2 °F 22.6 °F 20.1 °F 66% 30.53 in 10.0 mi NW 8.1 mph - N/A   Clear
6:55 PM 29.7 °F 23.7 °F 19.4 °F 66% 30.54 in 10.0 mi NNW 5.8 mph - N/A   Clear
7:15 PM 30.0 °F 26.5 °F 20.1 °F 67% 30.54 in 10.0 mi NNW 3.5 mph - N/A   Mostly Cloudy
7:35 PM 30.0 °F - 20.7 °F 68% 30.54 in 10.0 mi Calm Calm - N/A   Overcast
7:55 PM 30.2 °F - 20.5 °F 67% 30.54 in 10.0 mi Calm Calm - N/A   Overcast
8:15 PM 30.0 °F 25.2 °F 21.0 °F 69% 30.54 in 10.0 mi WNW 4.6 mph - N/A   Overcast
8:35 PM 29.5 °F - 19.9 °F 68% 30.55 in 10.0 mi Calm Calm - N/A   Scattered Clouds
8:55 PM 28.8 °F - 19.9 °F 70% 30.56 in 10.0 mi Calm Calm - N/A   Clear
9:15 PM 27.0 °F 23.0 °F 20.3 °F 76% 30.57 in 10.0 mi West 3.5 mph - N/A   Clear
9:35 PM 25.3 °F - 20.7 °F 82% 30.57 in 10.0 mi Calm Calm - N/A   Clear
9:55 PM 25.0 °F - 20.1 °F 82% 30.57 in 10.0 mi Calm Calm - N/A   Clear
10:15 PM 25.3 °F 21.1 °F 20.8 °F 83% 30.58 in 10.0 mi West 3.5 mph - N/A   Scattered Clouds
10:35 PM 25.3 °F 21.1 °F 21.2 °F 84% 30.57 in 10.0 mi West 3.5 mph - N/A   Overcast
10:55 PM 26.4 °F - 21.6 °F 82% 30.57 in 10.0 mi Calm Calm - N/A   Overcast
11:15 PM 27.5 °F 22.2 °F 21.7 °F 79% 30.57 in 10.0 mi West 4.6 mph - N/A   Overcast
11:35 PM 27.5 °F 23.6 °F 21.2 °F 77% 30.56 in 10.0 mi West 3.5 mph - N/A   Overcast
11:55 PM 25.5 °F 19.9 °F 20.5 °F 81% 30.56 in 10.0 mi West 4.6 mph - N/A   Scattered Clouds